Miscellaneous Local Product
Issued by NWS Hastings, NE

Home | Current Version | Previous Version | Graphics & Text | Print | Product List | Glossary On
Versions: 1 2 3 4 5 6 7 8 9 10 11 12 13 14 15 16 17 18 19 20 21 22 23 24 25 26 27 28 29 30 31 32 33 34 35 36 37 38 39 40 41 42 43 44 45 46 47 48 49 50
000
AXUS43 KGID 180602
MISGRI

GID CWA HOURLY WEATHER ROUNDUP
NATIONAL WEATHER SERVICE HASTINGS NE
100 AM CDT SAT APR 18 2015

NOTE: "FAIR" INDICATES FEW OR NO CLOUDS BELOW 12,000 FEET WITH NO
SIGNIFICANT WEATHER AND/OR OBSTRUCTIONS TO VISIBILITY.

...SOUTH CENTRAL NEBRASKA...

CITY           SKY/WX    TMP DP  RH WIND       PRES   REMARKS
GRAND ISLAND   FAIR      54  51  90 E5        29.98F
HASTINGS       FAIR      55  52  89 E7        29.97S
KEARNEY        CLOUDY    55  52  88 E7        29.97S
ORD            CLOUDY    56  52  86 N6        29.99F
YORK           FAIR      57  54  88 E5        29.98S
AURORA         FAIR      55  54  95 E6        29.97F
LEXINGTON      CLOUDY    57  55  91 E10       29.96S
HOLDREGE       FAIR      57  53  88 E10       29.96S
HEBRON         FAIR      57  54  88 CALM      29.96S

...NEBRASKA PANHANDLE...

CITY           SKY/WX    TMP DP  RH WIND       PRES   REMARKS
CHADRON        CLOUDY    48  46  93 N9        30.05F
ALLIANCE       RAIN      48  46  93 E8        30.03R FOG
SCOTTSBLUFF    RAIN      42  42 100 NW10      30.05F FOG
SIDNEY         RAIN      41  39  93 NW16      30.04F FOG

...WESTERN AND NORTH CENTRAL NEBRASKA...

CITY           SKY/WX    TMP DP  RH WIND       PRES   REMARKS
VALENTINE      CLOUDY    52  49  89 NE7       30.04F
AINSWORTH      CLOUDY    52  51  95 NE7       30.04F
ONEILL         MOCLDY    55  49  79 CALM      30.03F
BROKEN BOW     CLOUDY    55  51  86 NE10      29.99F
IMPERIAL       CLOUDY    50  45  83 S7        29.98S
NORTH PLATTE   CLOUDY    54  52  93 SW6       29.99R
MCCOOK         CLOUDY    53  47  79 NW6       29.98R

...EASTERN NEBRASKA...

CITY           SKY/WX    TMP DP  RH WIND       PRES   REMARKS
NORFOLK        NOT AVBL
SO SIOUX CITY  CLOUDY    64  49  57 W5        30.01S
TEKAMAH        CLOUDY    62  51  67 N6        29.98F
COLUMBUS       CLOUDY    61  50  67 NE7       30.00F
ALBION         MOCLDY    58  49  72 E6        30.01S
OMAHA EPPLEY   CLOUDY    64  55  72 NW5       29.97F
OFFUTT AFB     CLOUDY    64  55  72 E3        29.97S
MILLARD        CLOUDY    65  57  75 CALM      29.98F
LINCOLN        MOCLDY    64  56  75 E6        29.97F
NEBRASKA CITY  FAIR      63  53  71 SE5       29.98F
BEATRICE       FAIR      60  55  83 CALM      29.97S
FALLS CITY     FAIR      60  55  83 E5        29.96F

...NORTHERN KANSAS...

CITY           SKY/WX    TMP DP  RH WIND       PRES   REMARKS
GOODLAND       MOCLDY    47  46  97 E6        29.97R
HILL CITY      LGT RAIN  55  53  93 NW6       29.96R FOG
NORTON         LGT RAIN  55  50  82 CALM      29.94F
PHILLIPSBURG   TSTM      59  59 100 W8        29.95F
SMITH CENTER   CLOUDY    59  54  82 E10       29.94F
BELOIT         MOCLDY    61  54  77 E8        29.94S
HAYS           CLOUDY    59  50  72 S5        29.93F
RUSSELL        FAIR      59  56  89 S5        29.92F
CONCORDIA      FAIR      60  57  89 E3        29.95S
SALINA         FAIR      62  57  83 SE6       29.95S
TOPEKA         FAIR      58  56  93 CALM      29.96S



USA.gov is the U.S. government's official web portal to all federal, state and local government web resources and services.